Weather History for Princeton, MN

Change the Weather History Date:

Sunday, August 18, 2013

  Actual Average Record
Temperature  
Mean Temperature 68 °F -  
Max Temperature 82 °F 76 °F 95 °F (2003)
Min Temperature 55 °F 54 °F 42 °F (2012)
Cooling Degree Days 4    
Growing Degree Days 18 (Base 50)    
Moisture  
Dew Point 54 °F    
Average Humidity 58    
Maximum Humidity 94    
Minimum Humidity 35    
Precipitation  
Precipitation 0.00 in - - ()
Sea Level Pressure  
Sea Level Pressure 30.07 in    
Wind  
Wind Speed 7 mph (South)    
Max Wind Speed 18 mph    
Max Gust Speed 26 mph    
Visibility 10 miles    
Events      
Averages and records for this station are not official NWS values.
T = Trace of Precipitation, MM = Missing Value Source: NWS Daily Summary

Daily Weather History Graph

Daily Weather History Graph

Search for Another Location

Airport:

Trip Planner

Search our weather history database for the weather conditions in past years. The results will help you decide how hot, cold, wet, or windy it might be!

Date:

Astronomy

Aug. 18, 2013 Rise Set
Actual Time 6:18 AM CDT 8:16 PM CDT
Civil Twilight 5:46 AM CDT 8:48 PM CDT
Nautical Twilight 5:07 AM CDT 9:27 PM CDT
Astronomical Twilight 4:24 AM CDT 10:10 PM CDT
Moon 6:25 PM CDT (8/18) 3:24 AM CDT (8/18)
Length of Visible Light 15h 01m
Length of Day
13h 57m
Waxing Gibbous, 92% of the Moon is Illuminated
Aug 18
Waxing Gibbous
Aug 20
Full
Aug 28
Last Quarter
Sep 5
New
Sep 12
First Quarter

Hourly Weather History & Observations

Time (CDT) Temp. Heat Index Dew Point Humidity Pressure Visibility Wind Dir Wind Speed Gust Speed Precip Events Conditions
12:01 AM 64.4 °F - 53.6 °F 68% 30.11 in 10.0 mi SSE 5.8 mph - N/A   Clear
12:21 AM 62.6 °F - 53.6 °F 72% 30.11 in 10.0 mi SSE 5.8 mph - N/A   Clear
12:41 AM 62.6 °F - 53.6 °F 72% 30.11 in 10.0 mi SSE 5.8 mph - N/A   Clear
1:01 AM 62.6 °F - 53.6 °F 72% 30.11 in 10.0 mi SSE 5.8 mph - N/A   Clear
1:21 AM 62.6 °F - 53.6 °F 72% 30.12 in 10.0 mi South 4.6 mph - N/A   Clear
1:41 AM 60.8 °F - 53.6 °F 77% 30.12 in 10.0 mi South 3.5 mph - N/A   Clear
2:01 AM 62.6 °F - 53.6 °F 72% 30.12 in 10.0 mi South 3.5 mph - N/A   Clear
2:21 AM 60.8 °F - 53.6 °F 77% 30.12 in 10.0 mi South 4.6 mph - N/A   Clear
2:41 AM 60.8 °F - 53.6 °F 77% 30.12 in 10.0 mi South 2.3 mph - N/A   Clear
3:01 AM 59.0 °F - 53.6 °F 82% 30.11 in 10.0 mi South 4.6 mph - N/A   Clear
3:21 AM 59.0 °F - 53.6 °F 82% 30.12 in 10.0 mi South 2.3 mph - N/A   Clear
3:41 AM 57.2 °F - 53.6 °F 88% 30.12 in 10.0 mi South 2.3 mph - N/A   Clear
4:21 AM 55.4 °F - 51.8 °F 88% 30.12 in 10.0 mi SSE 3.5 mph - N/A   Clear
4:41 AM 57.2 °F - 51.8 °F 82% 30.12 in 10.0 mi SSE 3.5 mph - N/A   Clear
5:01 AM 55.4 °F - 51.8 °F 88% 30.12 in 10.0 mi SSE 4.6 mph - N/A   Clear
5:21 AM 55.4 °F - 51.8 °F 88% 30.12 in 10.0 mi SSE 2.3 mph - N/A   Clear
5:41 AM 55.4 °F - 51.8 °F 88% 30.12 in 10.0 mi SE 2.3 mph - N/A   Clear
6:41 AM 55.4 °F - 51.8 °F 88% 30.12 in 10.0 mi North 4.6 mph - N/A   Clear
7:01 AM 55.4 °F - 53.6 °F 94% 30.12 in 10.0 mi North 4.6 mph - N/A   Clear
7:21 AM 59.0 °F - 53.6 °F 82% 30.13 in 10.0 mi ENE 4.6 mph - N/A   Clear
7:41 AM 60.8 °F - 55.4 °F 82% 30.13 in 10.0 mi SSE 5.8 mph - N/A   Clear
8:21 AM 64.4 °F - 55.4 °F 73% 30.13 in 10.0 mi South 4.6 mph - N/A   Clear
8:41 AM 66.2 °F - 55.4 °F 68% 30.13 in 10.0 mi SSE 5.8 mph - N/A   Clear
9:01 AM 68.0 °F - 55.4 °F 64% 30.13 in 10.0 mi SSE 6.9 mph - N/A   Clear
9:21 AM 69.8 °F - 55.4 °F 60% 30.13 in 10.0 mi South 5.8 mph - N/A   Clear
9:41 AM 71.6 °F - 55.4 °F 57% 30.13 in 10.0 mi South 9.2 mph - N/A   Clear
10:01 AM 73.4 °F - 55.4 °F 53% 30.12 in 10.0 mi South 9.2 mph - N/A   Clear
10:21 AM 73.4 °F - 55.4 °F 53% 30.12 in 10.0 mi South 10.4 mph - N/A   Clear
10:41 AM 75.2 °F - 55.4 °F 50% 30.11 in 10.0 mi South 13.8 mph - N/A   Clear
11:01 AM 77.0 °F - 55.4 °F 47% 30.10 in 10.0 mi SSE 12.7 mph 18.4 mph N/A   Clear
11:21 AM 78.8 °F - 53.6 °F 42% 30.10 in 10.0 mi South 16.1 mph - N/A   Clear
11:41 AM 78.8 °F - 53.6 °F 42% 30.09 in 10.0 mi South 13.8 mph 23.0 mph N/A   Clear
12:12 PM 78.8 °F - 53.6 °F 42% 30.08 in 10.0 mi South 15.0 mph 23.0 mph N/A   Clear
12:21 PM 78.8 °F - 53.6 °F 42% 30.08 in 10.0 mi South 15.0 mph 20.7 mph N/A   Clear
12:41 PM 80.6 °F 80.3 °F 53.6 °F 39% 30.07 in 10.0 mi SSE 15.0 mph 20.7 mph N/A   Clear
1:01 PM 80.6 °F 80.3 °F 53.6 °F 39% 30.06 in 10.0 mi South 16.1 mph 23.0 mph N/A   Clear
1:21 PM 80.6 °F - 51.8 °F 37% 30.05 in 10.0 mi South 18.4 mph 26.5 mph N/A   Clear
1:41 PM 80.6 °F - 51.8 °F 37% 30.06 in 10.0 mi South 15.0 mph 21.9 mph N/A   Clear
2:01 PM 82.4 °F - 51.8 °F 35% 30.06 in 10.0 mi South 13.8 mph 19.6 mph N/A   Clear
2:21 PM 82.4 °F - 51.8 °F 35% 30.07 in 10.0 mi South 10.4 mph 20.7 mph N/A   Clear
2:41 PM 82.4 °F - 51.8 °F 35% 30.07 in 10.0 mi South 13.8 mph 19.6 mph N/A   Clear
3:01 PM 82.4 °F - 51.8 °F 35% 30.07 in 10.0 mi South 13.8 mph 23.0 mph N/A   Clear
3:21 PM 82.4 °F - 51.8 °F 35% 30.07 in 10.0 mi South 10.4 mph 23.0 mph N/A   Clear
3:41 PM 82.4 °F - 51.8 °F 35% 30.06 in 10.0 mi South 12.7 mph 21.9 mph N/A   Clear
4:01 PM 82.4 °F - 51.8 °F 35% 30.05 in 10.0 mi SSW 12.7 mph 21.9 mph N/A   Clear
4:21 PM 82.4 °F - 51.8 °F 35% 30.05 in 10.0 mi SSW 13.8 mph 18.4 mph N/A   Clear
4:41 PM 80.6 °F - 51.8 °F 37% 30.04 in 10.0 mi SSW 12.7 mph 18.4 mph N/A   Clear
5:01 PM 80.6 °F - 51.8 °F 37% 30.03 in 10.0 mi South 10.4 mph 17.3 mph N/A   Clear
5:21 PM 80.6 °F 80.3 °F 53.6 °F 39% 30.03 in 10.0 mi South 15.0 mph 18.4 mph N/A   Clear
5:41 PM 78.8 °F - 53.6 °F 42% 30.03 in 10.0 mi SSW 10.4 mph 19.6 mph N/A   Clear
6:01 PM 78.8 °F - 53.6 °F 42% 30.03 in 7.0 mi South 10.4 mph 16.1 mph N/A   Clear
6:21 PM 78.8 °F - 53.6 °F 42% 30.02 in 10.0 mi South 10.4 mph - N/A   Clear
6:41 PM 77.0 °F - 53.6 °F 44% 30.02 in 10.0 mi South 11.5 mph 17.3 mph N/A   Clear
7:01 PM 77.0 °F - 55.4 °F 47% 30.01 in 10.0 mi South 9.2 mph - N/A   Clear
7:21 PM 75.2 °F - 55.4 °F 50% 30.01 in 10.0 mi South 10.4 mph - N/A   Clear
7:41 PM 75.2 °F - 55.4 °F 50% 30.01 in 10.0 mi South 6.9 mph - N/A   Clear
8:01 PM 73.4 °F - 55.4 °F 53% 30.00 in 10.0 mi SSE 9.2 mph - N/A   Clear
8:21 PM 73.4 °F - 55.4 °F 53% 29.99 in 10.0 mi SSE 6.9 mph - N/A   Clear
8:41 PM 71.6 °F - 55.4 °F 57% 29.99 in 10.0 mi SSE 8.1 mph - N/A   Clear
9:01 PM 71.6 °F - 55.4 °F 57% 29.99 in 10.0 mi South 8.1 mph - N/A   Clear
9:21 PM 71.6 °F - 55.4 °F 57% 29.99 in 10.0 mi South 8.1 mph - N/A   Clear
9:41 PM 71.6 °F - 55.4 °F 57% 29.99 in 10.0 mi SSE 8.1 mph - N/A   Clear
10:01 PM 69.8 °F - 55.4 °F 60% 30.01 in 10.0 mi South 5.8 mph - N/A   Clear
10:21 PM 69.8 °F - 55.4 °F 60% 30.01 in 10.0 mi South 5.8 mph - N/A   Mostly Cloudy
10:41 PM 69.8 °F - 57.2 °F 64% 30.01 in 10.0 mi South 5.8 mph - N/A   Overcast
11:01 PM 71.6 °F - 57.2 °F 60% 30.02 in 10.0 mi South 5.8 mph - N/A   Overcast
11:21 PM 71.6 °F - 57.2 °F 60% 30.02 in 10.0 mi South 5.8 mph - N/A   Overcast
11:41 PM 71.6 °F - 57.2 °F 60% 30.01 in 10.0 mi South 8.1 mph - N/A   Overcast